NJ3J Weather Reports


time (UTC)temp
F
wind
direction
speed
knots
gust
knots
rain 1hr
in
rain 24hr
in
rain mn
in
humidity
%
barometer
mb
20260906122017 74 222 0.9 2.6 0.00 0.00 0.00 98 1013.6
20260906121537 74 93 0.0 1.7 0.00 0.00 0.00 98 1013.5
20260906121016 74 89 0.9 0.9 0.00 0.00 0.00 98 1013.4
20260906120517 74 264 0.9 1.7 0.00 0.00 0.00 98 1013.2
20260906120017 74 257 0.0 1.7 0.00 0.00 0.00 98 1013.2
20260906115517 74 158 0.9 2.6 0.00 0.00 0.00 98 1013.2
20260906115017 74 13 0.9 3.5 0.00 0.00 0.00 98 1013.1
20260906114557 74 16 0.9 1.7 0.00 0.00 0.00 98 1013.0
20260906114017 74 108 0.9 1.7 0.00 0.00 0.00 97 1012.8
20260906113517 74 128 0.9 2.6 0.00 0.00 0.00 97 1012.7
20260906113017 74 167 0.9 2.6 0.00 0.00 0.00 97 1012.7
20260906112517 74 230 0.9 1.7 0.00 0.00 0.00 97 1012.7
20260906112018 74 243 0.9 2.6 0.00 0.00 0.00 97 1012.7
20260906111517 74 64 0.9 2.6 0.00 0.00 0.00 97 1012.5
20260906111037 74 221 0.9 2.6 0.00 0.00 0.00 97 1012.4
20260906110517 74 199 0.9 2.6 0.00 0.00 0.00 96 1012.4
20260906110017 75 125 0.9 1.7 0.00 0.00 0.00 96 1012.3
20260906105518 75 301 0.9 1.7 0.00 0.00 0.00 96 1012.3
20260906105037 75 56 0.0 1.7 0.00 0.00 0.00 96 1012.3
20260906104518 75 28 0.9 0.9 0.00 0.00 0.00 96 1012.3
20260906104018 75 199 0.9 1.7 0.00 0.00 0.00 96 1012.3
20260906103518 75 178 0.9 2.6 0.00 0.00 0.00 96 1012.3
20260906103015 75 281 0.9 1.7 0.00 0.00 0.00 96 1012.1
20260906102515 75 256 0.9 1.7 0.00 0.00 0.00 96 1012.2
20260906102036 75 174 0.9 2.6 0.00 0.00 0.00 96 1012.1
20260906101518 75 14 0.9 2.6 0.00 0.00 0.00 95 1012.0
20260906101035 76 336 0.9 1.7 0.00 0.00 0.00 95 1011.9
20260906100516 76 56 0.9 1.7 0.00 0.00 0.00 95 1011.9
20260906100016 76 314 0.9 0.9 0.00 0.00 0.00 95 1011.9
20260906095516 76 316 0.9 0.9 0.00 0.00 0.00 95 1012.0
20260906095016 76 316 0.9 0.9 0.00 0.00 0.00 95 1011.9
20260906094536 76 319 0.9 0.9 0.00 0.00 0.00 95 1012.0
20260906094017 76 133 0.9 0.9 0.00 0.00 0.00 95 1012.0
20260906093556 76 132 0.9 0.9 0.00 0.00 0.00 96 1012.0
20260906093036 75 132 0.9 0.9 0.00 0.00 0.00 96 1012.0
20260906092556 75 133 0.9 0.9 0.00 0.00 0.00 96 1011.9
20260906092017 75 134 0.9 0.9 0.00 0.00 0.00 96 1011.9
20260906091517 75 81 0.9 0.9 0.00 0.00 0.00 96 1011.9
20260906091016 75 317 0.9 0.9 0.00 0.00 0.00 96 1011.8
20260906090517 75 318 0.9 0.9 0.00 0.00 0.00 96 1011.9
20260906090037 75 317 0.9 0.9 0.00 0.00 0.00 96 1011.9
20260906085518 76 315 0.9 0.9 0.00 0.00 0.00 96 1011.9
20260906085018 76 317 0.9 0.9 0.00 0.00 0.00 96 1011.9
20260906084518 76 337 0.9 0.9 0.00 0.00 0.00 95 1011.9
20260906084018 76 319 0.9 0.9 0.00 0.00 0.00 95 1011.9
20260906083518 76 320 0.9 0.9 0.00 0.00 0.00 95 1011.8
20260906083018 76 318 0.9 0.9 0.00 0.00 0.00 95 1011.9
20260906082516 76 317 0.9 1.7 0.00 0.00 0.00 95 1011.9
20260906082015 76 314 0.9 1.7 0.00 0.00 0.00 95 1011.9
20260906081515 76 316 0.9 0.9 0.00 0.00 0.00 94 1011.8
20260906081016 76 316 0.9 0.9 0.00 0.00 0.00 94 1011.7
20260906080516 77 128 0.9 0.9 0.00 0.00 0.00 94 1011.7
20260906080016 77 130 0.9 1.7 0.00 0.00 0.00 93 1011.7
20260906075516 77 319 0.9 1.7 0.00 0.00 0.00 93 1011.6
20260906075016 77 316 0.9 0.9 0.00 0.00 0.00 92 1011.6
20260906074536 77 317 0.9 0.9 0.00 0.00 0.00 92 1011.6
20260906074016 77 313 0.9 2.6 0.00 0.00 0.00 92 1011.7
20260906073516 78 151 2.6 7.0 0.00 0.00 0.00 91 1011.8
20260906073016 78 167 3.5 7.0 0.00 0.00 0.00 91 1011.8
20260906072556 78 314 0.9 3.5 0.00 0.00 0.00 91 1011.7
20260906072016 78 220 1.7 3.5 0.00 0.00 0.00 90 1011.8
20260906071516 78 167 2.6 4.3 0.00 0.00 0.00 90 1011.8
20260906071016 77 158 1.7 4.3 0.00 0.00 0.00 90 1011.7
20260906070517 77 236 1.7 6.1 0.00 0.00 0.00 92 1011.8
20260906070016 77 133 0.9 6.1 0.00 0.00 0.00 92 1011.8
20260906065516 77 314 0.9 1.7 0.00 0.00 0.00 92 1011.8
20260906065017 77 315 0.9 2.6 0.00 0.00 0.00 92 1011.8
20260906064517 77 312 1.7 4.3 0.00 0.00 0.00 92 1011.8
20260906064017 78 311 2.6 5.2 0.00 0.00 0.00 92 1011.8
20260906063517 78 310 3.5 6.1 0.00 0.00 0.00 91 1011.8
20260906063017 78 307 3.5 7.0 0.00 0.00 0.00 91 1011.8
20260906062517 78 309 0.9 5.2 0.00 0.00 0.00 91 1011.8
20260906062017 78 309 0.9 3.5 0.00 0.00 0.00 91 1011.8
20260906061537 78 315 0.9 2.6 0.00 0.00 0.00 91 1011.9
20260906061017 78 315 0.9 2.6 0.00 0.00 0.00 91 1011.9
20260906060517 78 315 0.9 1.7 0.00 0.00 0.00 91 1011.9
20260906060018 78 312 0.9 2.6 0.00 0.00 0.00 91 1011.9
20260906055518 78 312 0.9 3.5 0.00 0.00 0.00 90 1012.0
20260906055018 78 318 0.9 2.6 0.00 0.00 0.00 90 1012.0
20260906054518 78 295 1.7 3.5 0.00 0.00 0.00 90 1012.0
20260906054018 78 287 2.6 3.5 0.00 0.00 0.00 90 1012.0
20260906053538 78 296 0.9 4.3 0.00 0.00 0.00 89 1012.0
20260906053018 78 320 0.9 2.6 0.00 0.00 0.00 89 1012.0
20260906052518 79 314 0.9 0.9 0.00 0.00 0.00 90 1012.0
20260906052018 79 317 0.9 0.9 0.00 0.00 0.00 90 1012.1
20260906051515 79 342 0.9 0.9 0.00 0.00 0.00 89 1012.2
20260906051015 79 318 0.9 0.9 0.00 0.00 0.00 89 1012.2
20260906050515 79 315 0.9 0.9 0.00 0.00 0.00 89 1012.2
20260906050016 79 316 0.9 1.7 0.00 0.00 0.00 89 1012.3
20260906045516 79 316 0.9 1.7 0.00 0.00 0.00 90 1012.3
20260906045016 79 313 0.9 0.9 0.00 0.00 0.00 90 1012.3
20260906044536 79 315 0.9 0.9 0.00 0.00 0.00 90 1012.3
20260906044016 79 319 0.9 0.9 0.00 0.00 0.00 90 1012.3
20260906043536 79 317 0.9 0.9 0.00 0.00 0.00 90 1012.3
20260906043016 79 318 0.9 1.7 0.00 0.00 0.00 89 1012.4
20260906042536 79 316 0.9 0.9 0.00 0.00 0.00 89 1012.3
20260906042016 79 318 0.9 0.9 0.00 0.00 0.00 89 1012.3
20260906041516 79 316 0.9 1.7 0.00 0.00 0.00 88 1012.3
20260906041017 80 320 0.9 2.6 0.00 0.00 0.00 88 1012.3
20260906040537 80 316 0.9 0.9 0.00 0.00 0.00 87 1012.3
20260906040017 80 315 0.9 0.9 0.00 0.00 0.00 86 1012.3
20260906035517 80 321 0.9 0.9 0.00 0.00 0.00 86 1012.3
20260906035016 80 318 0.9 0.9 0.00 0.00 0.00 86 1012.3
20260906034517 80 314 0.9 0.9 0.00 0.00 0.00 85 1012.1
20260906034017 80 311 0.9 1.7 0.00 0.00 0.00 86 1012.1
20260906033517 80 313 0.9 0.9 0.00 0.00 0.00 86 1012.1
20260906033037 80 313 0.9 0.9 0.00 0.00 0.00 86 1012.0
20260906032537 80 309 0.9 1.7 0.00 0.00 0.00 87 1011.9
20260906032017 80 316 0.9 1.7 0.00 0.00 0.00 87 1011.8
20260906031517 80 311 0.9 0.9 0.00 0.00 0.00 88 1011.7
20260906031017 80 276 0.9 5.2 0.00 0.00 0.00 89 1011.6
20260906030517 80 286 0.9 3.5 0.00 0.00 0.00 89 1011.6
20260906030017 80 269 0.9 2.6 0.00 0.00 0.00 88 1011.5
20260906025517 80 287 0.9 2.6 0.00 0.00 0.00 88 1011.5
20260906025017 80 291 0.9 2.6 0.00 0.00 0.00 88 1011.6
20260906024518 80 285 0.9 1.7 0.00 0.00 0.00 88 1011.5
20260906024018 81 290 0.9 3.5 0.00 0.00 0.00 87 1011.5
20260906023518 81 235 0.9 1.7 0.00 0.00 0.00 87 1011.5
20260906023018 81 274 0.9 4.3 0.00 0.00 0.00 86 1011.5
20260906022518 81 292 0.9 4.3 0.00 0.00 0.00 86 1011.5
20260906022019 81 269 0.9 2.6 0.00 0.00 0.00 86 1011.5
20260906021515 81 275 0.9 2.6 0.00 0.00 0.00 85 1011.4
20260906021018 81 279 0.9 2.6 0.00 0.00 0.00 85 1011.4
20260906020516 82 296 0.9 4.3 0.00 0.00 0.00 84 1011.4
20260906020016 82 306 2.6 5.2 0.00 0.00 0.00 83 1011.3
20260906015516 82 314 0.9 3.5 0.00 0.00 0.00 83 1011.3
20260906015016 82 308 1.7 5.2 0.00 0.00 0.00 83 1011.3
20260906014516 82 312 0.9 3.5 0.00 0.00 0.00 82 1011.2
20260906014016 82 312 0.9 4.3 0.00 0.00 0.00 82 1011.2
20260906013516 82 315 0.9 0.9 0.00 0.00 0.00 81 1011.2
20260906013016 83 316 0.9 0.9 0.00 0.00 0.00 81 1011.2
20260906012516 83 316 0.9 0.9 0.00 0.00 0.00 81 1011.2
20260906012056 83 180 0.9 4.3 0.00 0.00 0.00 80 1011.2
20260906011516 83 174 0.9 4.3 0.00 0.00 0.00 80 1011.2
20260906011017 84 312 0.9 4.3 0.00 0.00 0.00 78 1011.1
20260906010516 84 310 3.5 5.2 0.00 0.00 0.00 77 1011.1
20260906010017 84 307 2.6 5.2 0.00 0.00 0.00 76 1011.1
20260906005517 85 306 2.6 4.3 0.00 0.00 0.00 75 1011.1
20260906005017 85 293 1.7 3.5 0.00 0.00 0.00 74 1011.0
20260906004517 85 309 2.6 4.3 0.00 0.00 0.00 73 1011.0
20260906004017 86 310 0.9 3.5 0.00 0.00 0.00 72 1011.0
20260906003517 86 312 0.9 3.5 0.00 0.00 0.00 71 1011.0
20260906003017 87 301 0.9 3.5 0.00 0.00 0.00 69 1010.9
20260906002537 88 240 0.9 2.6 0.00 0.00 0.00 67 1010.9
20260906002017 88 271 0.9 3.5 0.00 0.00 0.00 66 1010.9
20260906001517 89 292 1.7 5.2 0.00 0.00 0.00 65 1011.0
20260906001017 89 313 2.6 5.2 0.00 0.00 0.00 64 1011.0
20260906000518 90 311 1.7 4.3 0.00 0.00 0.00 62 1011.1
20260906000018 91 317 0.9 3.5 0.00 0.00 0.00 61 1011.1
20260905235538 91 314 0.9 2.6 0.00 0.00 0.00 58 1011.2
20260905235017 92 311 1.7 3.5 0.00 0.00 0.00 58 1011.2
20260905234518 93 308 1.7 2.6 0.00 0.00 0.00 56 1011.2
20260905234018 94 301 1.7 2.6 0.00 0.00 0.00 53 1011.1
20260905233518 95 320 0.0 0.9 0.00 0.00 0.00 50 1011.1
20260905233017 96 310 0.0 0.9 0.00 0.00 0.00 49 1011.1
20260905232518 98 290 0.0 0.9 0.00 0.00 0.00 46 1011.0
20260905232018 99 298 0.0 0.9 0.00 0.00 0.00 45 1011.1
20260905231518 99 318 0.0 0.9 0.00 0.00 0.00 42 1011.1
20260905231016 100 349 0.9 1.7 0.00 0.00 0.00 42 1011.1
20260905230518 100 289 0.0 0.9 0.00 0.00 0.00 42 1011.2
20260905230038 99 328 0.9 2.6 0.00 0.00 0.00 41 1011.1
20260905225518 99 350 0.9 3.5 0.00 0.00 0.00 42 1011.1
20260905225016 99 338 0.9 1.7 0.00 0.00 0.00 42 1011.1
20260905224515 99 339 0.9 2.6 0.00 0.00 0.00 42 1011.1
20260905224016 99 328 0.9 1.7 0.00 0.00 0.00 42 1011.0
20260905223536 99 312 1.7 4.3 0.00 0.00 0.00 42 1011.0
20260905223036 99 305 0.9 2.6 0.00 0.00 0.00 43 1011.0
20260905222516 99 330 0.9 2.6 0.00 0.00 0.00 43 1011.0
20260905222016 99 341 0.9 1.7 0.00 0.00 0.00 44 1011.1
20260905221536 99 332 0.9 2.6 0.00 0.00 0.00 44 1011.1
20260905221036 99 306 0.0 1.7 0.00 0.00 0.00 44 1011.1
20260905220516 99 335 0.9 1.7 0.00 0.00 0.00 43 1011.2
20260905220016 99 304 0.9 2.6 0.00 0.00 0.00 43 1011.2
20260905215516 99 311 0.9 1.7 0.00 0.00 0.00 44 1011.1
20260905215017 99 306 1.7 3.5 0.00 0.00 0.00 44 1011.2
20260905214517 100 308 1.7 4.3 0.00 0.00 0.00 44 1011.2
20260905214017 100 299 1.7 3.5 0.00 0.00 0.00 42 1011.3
20260905213537 100 232 0.9 2.6 0.00 0.00 0.00 41 1011.3
20260905213037 100 226 1.7 3.5 0.00 0.00 0.00 40 1011.3
20260905212517 100 233 1.7 3.5 0.00 0.00 0.00 42 1011.4
20260905212017 100 64 0.9 2.6 0.00 0.00 0.00 42 1011.3
20260905211517 99 339 0.9 2.6 0.00 0.00 0.00 43 1011.3
20260905211017 99 351 0.9 3.5 0.00 0.00 0.00 43 1011.3
20260905210517 100 282 3.5 6.1 0.00 0.00 0.00 42 1011.4
20260905210017 100 278 2.6 4.3 0.00 0.00 0.00 43 1011.4
20260905205517 101 297 2.6 6.1 0.00 0.00 0.00 41 1011.4
20260905205018 101 249 1.7 2.6 0.00 0.00 0.00 41 1011.5
20260905204517 100 241 0.9 4.3 0.00 0.00 0.00 42 1011.5
20260905204018 99 298 1.7 6.1 0.00 0.00 0.00 42 1011.6
20260905203518 99 255 1.7 5.2 0.00 0.00 0.00 44 1011.6
20260905203018 99 291 3.5 7.0 0.00 0.00 0.00 44 1011.7
20260905202538 100 265 1.7 6.1 0.00 0.00 0.00 43 1011.7
20260905202018 100 308 2.6 4.3 0.00 0.00 0.00 43 1011.8
20260905201558 99 241 1.7 4.3 0.00 0.00 0.00 44 1011.9
20260905201018 99 279 1.7 6.1 0.00 0.00 0.00 45 1011.9
20260905200018 100 258 1.7 3.5 0.00 0.00 0.00 45 1012.1
20260905195515 100 219 1.7 3.5 0.00 0.01 0.00 44 1012.2
20260905195015 100 230 1.7 3.5 0.00 0.05 0.00 45 1012.3
20260905194515 100 349 0.9 2.6 0.00 0.09 0.00 44 1012.4
20260905194016 99 246 0.9 2.6 0.00 0.16 0.00 44 1012.4
20260905193516 98 270 2.6 5.2 0.00 0.21 0.00 46 1012.5
20260905193016 98 239 1.7 3.5 0.00 0.27 0.00 47 1012.6
20260905192516 97 297 2.6 6.1 0.00 0.29 0.00 48 1012.7
20260905192036 97 287 1.7 4.3 0.00 0.32 0.00 49 1012.9
20260905191516 98 231 0.9 5.2 0.00 0.32 0.00 49 1013.0
20260905191016 99 260 2.6 6.1 0.00 0.32 0.00 47 1013.0
20260905190516 98 268 1.7 5.2 0.00 0.32 0.00 46 1013.0
20260905190016 98 285 2.6 5.2 0.00 0.32 0.00 45 1013.0
20260905185516 98 322 2.6 5.2 0.00 0.32 0.00 46 1013.0
20260905185056 98 288 4.3 7.0 0.00 0.32 0.00 46 1013.0
20260905184516 98 281 1.7 4.3 0.00 0.32 0.00 47 1013.1
20260905184016 99 300 2.6 5.2 0.00 0.32 0.00 46 1013.2
20260905183557 99 303 1.7 5.2 0.00 0.32 0.00 46 1013.2
20260905183016 99 316 1.7 4.3 0.00 0.32 0.00 46 1013.3
20260905182517 98 320 1.7 3.5 0.00 0.32 0.00 46 1013.3
20260905182017 98 299 1.7 3.5 0.00 0.32 0.00 47 1013.4
20260905181517 97 315 1.7 4.3 0.00 0.32 0.00 49 1013.4
20260905181017 97 295 0.9 2.6 0.00 0.32 0.00 49 1013.4
20260905180517 97 328 1.7 3.5 0.00 0.32 0.00 48 1013.6
20260905180017 97 335 1.7 4.3 0.00 0.32 0.00 48 1013.6
20260905175517 97 115 1.7 5.2 0.00 0.32 0.00 47 1013.6
20260905175018 97 116 0.9 2.6 0.00 0.32 0.00 47 1013.6
20260905174517 96 292 0.9 2.6 0.00 0.32 0.00 48 1013.6
20260905174017 95 317 0.9 3.5 0.00 0.32 0.00 49 1013.7
20260905173517 95 8 0.9 2.6 0.00 0.32 0.00 51 1013.8
20260905173017 96 355 0.9 3.5 0.00 0.32 0.00 50 1013.9
20260905172518 97 360 1.7 3.5 0.00 0.32 0.00 49 1013.9
20260905172018 98 325 1.7 4.3 0.00 0.32 0.00 47 1013.9
20260905171518 97 314 1.7 4.3 0.00 0.32 0.00 49 1013.8
20260905171038 96 280 1.7 3.5 0.00 0.32 0.00 50 1013.9
20260905170518 96 243 0.9 2.6 0.00 0.32 0.00 49 1014.0
20260905170018 96 277 2.6 6.1 0.00 0.32 0.00 49 1014.0
20260905165515 96 287 3.5 7.8 0.00 0.32 0.00 50 1014.0
20260905165018 96 293 2.6 6.1 0.00 0.32 0.00 50 1014.1
20260905164516 96 277 1.7 4.3 0.00 0.32 0.00 51 1014.1
20260905164016 96 295 2.6 5.2 0.00 0.32 0.00 52 1014.2
20260905163516 96 296 2.6 6.1 0.00 0.32 0.00 52 1014.2
20260905163016 96 284 2.6 6.1 0.00 0.32 0.00 51 1014.3
20260905162516 96 286 1.7 6.1 0.00 0.32 0.00 51 1014.4
20260905162016 96 275 1.7 4.3 0.00 0.32 0.00 52 1014.4
20260905161536 96 241 1.7 3.5 0.00 0.32 0.00 52 1014.4
20260905161036 96 247 1.7 2.6 0.00 0.32 0.00 52 1014.4
20260905160516 96 243 0.9 2.6 0.00 0.32 0.00 53 1014.4
20260905160016 96 217 1.7 3.5 0.00 0.32 0.00 54 1014.4
20260905155516 95 269 1.7 3.5 0.00 0.32 0.00 55 1014.5
20260905155016 95 283 1.7 5.2 0.00 0.32 0.00 55 1014.5
20260905154517 94 280 0.9 2.6 0.00 0.32 0.00 57 1014.6
20260905154016 94 289 3.5 7.0 0.00 0.32 0.00 58 1014.6
20260905153517 94 292 2.6 6.1 0.00 0.32 0.00 58 1014.6
20260905153017 94 301 2.6 4.3 0.00 0.32 0.00 59 1014.6
20260905152517 94 281 1.7 4.3 0.00 0.32 0.00 58 1014.7
20260905152017 94 285 2.6 6.1 0.00 0.32 0.00 59 1014.6
20260905151517 93 249 0.9 2.6 0.00 0.32 0.00 60 1014.6
20260905151017 93 234 0.9 2.6 0.00 0.32 0.00 60 1014.6
20260905150517 93 281 1.7 4.3 0.00 0.32 0.00 61 1014.7
20260905150017 92 298 0.9 2.6 0.00 0.32 0.00 62 1014.7
20260905145517 91 296 0.9 3.5 0.00 0.32 0.00 63 1014.7
20260905145017 91 278 1.7 3.5 0.00 0.32 0.00 64 1014.6
20260905144517 90 276 0.9 1.7 0.00 0.32 0.00 66 1014.6
20260905144017 89 315 0.9 7.0 0.00 0.32 0.00 67 1014.6
20260905143518 89 305 4.3 8.7 0.00 0.32 0.00 67 1014.6
20260905143018 88 281 1.7 4.3 0.00 0.32 0.00 68 1014.7
20260905142518 88 288 1.7 3.5 0.00 0.32 0.00 68 1014.7
20260905142018 87 271 1.7 3.5 0.00 0.32 0.00 70 1014.7
20260905141518 86 286 2.6 6.1 0.00 0.32 0.00 72 1014.7
20260905141018 86 198 1.7 4.3 0.00 0.32 0.00 72 1014.7
20260905140518 85 283 2.6 7.0 0.00 0.32 0.00 73 1014.7
20260905140018 84 308 2.6 7.8 0.00 0.32 0.00 75 1014.7
20260905135538 84 295 1.7 3.5 0.00 0.32 0.00 76 1014.6
20260905135015 83 318 0.9 1.7 0.00 0.32 0.00 78 1014.6
20260905134536 82 290 0.9 3.5 0.00 0.32 0.00 80 1014.7
20260905134023 82 269 1.7 3.5 0.00 0.32 0.00 82 1014.6
20260905133516 81 211 1.7 4.3 0.00 0.32 0.00 83 1014.6
20260905133016 80 294 1.7 4.3 0.00 0.32 0.00 85 1014.6
20260905132536 79 278 1.7 3.5 0.00 0.32 0.00 88 1014.6
20260905132016 78 295 0.9 4.3 0.00 0.32 0.00 90 1014.6
20260905131516 78 299 0.9 3.5 0.00 0.32 0.00 92 1014.6
20260905131036 77 314 0.9 1.7 0.00 0.32 0.00 95 1014.6
20260905130556 77 313 0.9 2.6 0.00 0.32 0.00 97 1014.5
20260905130016 76 316 0.9 0.9 0.00 0.32 0.00 98 1014.5
20260905125516 76 316 0.9 0.9 0.00 0.32 0.00 99 1014.5
20260905125016 76 316 0.9 1.7 0.00 0.32 0.00 99 1014.4
20260905124537 75 189 0.9 3.5 0.00 0.32 0.00 99 1014.4
20260905124016 75 312 0.9 4.3 0.00 0.32 0.00 99 1014.4
20260905123517 74 317 0.9 0.9 0.00 0.32 0.00 99 1014.4
20260905123016 74 318 0.9 2.6 0.00 0.32 0.00 99 1014.3
20260905122517 74 318 0.9 2.6 0.00 0.32 0.00 99 1014.3